Location: Presov
(49.0000°N, 21.2500°E)
Time: 09:58:34
(UTC+02:00)

A-11 Canister half - Pass Details

Date: 19 April 2021
Orbit: 1526 x 1683 km, 47.3° (Epoch: 11 May)

Event Time Altitude Azimuth Distance (km) Brightness Sun altitude
Rises 19:49:26 0° 276° (W) 4,924 13.5 -3.3°
Reaches altitude 10° 19:52:35 10° 275° (W) 3,943 12.7 -3.8°
Maximum altitude 20:02:44 78° 192° (SSW) 1,716 9.3 -5.3°
Drops below altitude 10° 20:12:48 10° 109° (ESE) 3,910 10.5 -6.8°
Enters shadow 20:13:34 - 108° (ESE) 4,144 10.6 -6.9°
